Total_Precipitation_Accumulation
0.00 0.00 0.00 0.00 0.00 0.00 0.00 0.05 0.00 0.00 0.00 0.03 0.01 0.04 0.06 0.09 0.10 0.20 0.17 0.05 0.05 0.05 0.01 0.02 0.01 0.01 0.00 0.00 0.00 0.01 0.01 0.01 0.00 0.00 0.00 0.05 0.07 0.05 0.01 0.00 0.13 0.05 0.00
0.00 0.00 0.00 0.00 0.00 0.00 0.00 0.00 0.00 0.00 0.00 0.00 0.01 0.00 0.03 0.00 0.02 0.24 0.16 0.09 0.14 0.04 0.01 0.03 0.06 0.02 0.05 0.01 0.02 0.04 0.03 0.03 0.01 0.03 0.03 0.09 0.11 0.08 0.01 0.00 0.02 0.00 0.00
0.01 0.00 0.00 0.00 0.00 0.00 0.00 0.00 0.00 0.00 0.00 0.00 0.00 0.02 0.01 0.01 0.02 0.16 0.21 0.16 0.10 0.09 0.04 0.06 0.10 0.09 0.14 0.08 0.09 0.07 0.02 0.13 0.09 0.11 0.04 0.02 0.02 0.02 0.02 0.01 0.02 0.01 0.00
0.00 0.00 0.00 0.00 0.00 0.00 0.00 0.00 0.00 0.00 0.00 0.00 0.00 0.02 0.03 0.02 0.02 0.05 0.16 0.11 0.13 0.08 0.15 0.10 0.08 0.15 0.30 0.22 0.15 0.19 0.13 0.24 0.25 0.18 0.10 0.00 0.00 0.03 0.00 0.06 0.06 0.04 0.00
0.00 0.00 0.00 0.00 0.00 0.00 0.00 0.00 0.00 0.02 0.02 0.00 0.01 0.04 0.08 0.07 0.11 0.12 0.12 0.17 0.13 0.11 0.11 0.14 0.09 0.20 0.28 0.27 0.22 0.25 0.35 0.26 0.19 0.13 0.02 0.02 0.08 0.09 0.02 0.04 0.09 0.10 0.06
0.03 0.01 0.01 0.02 0.04 0.05 0.08 0.15 0.16 0.17 0.22 0.17 0.15 0.15 0.12 0.04 0.10 0.14 0.10 0.05 0.05 0.08 0.13 0.15 0.12 0.16 0.06 0.04 0.08 0.17 0.28 0.29 0.27 0.20 0.11 0.11 0.21 0.12 0.01 0.01 0.14 0.12 0.08
0.22 0.26 0.24 0.28 0.23 0.24 0.32 0.40 0.29 0.34 0.37 0.27 0.27 0.23 0.19 0.13 0.04 0.06 0.02 0.02 0.03 0.09 0.12 0.16 0.12 0.11 0.20 0.09 0.13 0.05 0.04 0.06 0.11 0.14 0.13 0.11 0.10 0.04 0.02 0.04 0.13 0.14 0.10
0.32 0.34 0.32 0.36 0.48 0.51 0.46 0.43 0.56 0.64 0.66 0.58 0.44 0.36 0.35 0.25 0.16 0.09 0.01 0.00 0.02 0.05 0.07 0.06 0.12 0.14 0.13 0.16 0.08 0.05 0.04 0.00 0.00 0.00 0.03 0.04 0.07 0.04 0.00 0.07 0.15 0.11 0.05
0.45 0.58 0.66 0.78 0.84 0.92 0.85 0.75 0.91 0.92 0.79 0.71 0.69 0.67 0.63 0.58 0.40 0.17 0.05 0.01 0.01 0.02 0.04 0.03 0.05 0.05 0.15 0.13 0.10 0.08 0.09 0.01 0.00 0.00 0.00 0.00 0.00 0.00 0.00 0.01 0.14 0.17 0.23
0.50 0.41 0.39 0.43 0.45 0.49 0.69 0.67 0.54 0.65 0.72 0.63 0.53 0.35 0.32 0.39 0.49 0.39 0.26 0.09 0.04 0.02 0.01 0.00 0.00 0.01 0.02 0.01 0.03 0.04 0.05 0.03 0.00 0.00 0.00 0.00 0.00 0.00 0.00 0.01 0.04 0.09 0.11
0.16 0.17 0.18 0.26 0.32 0.33 0.34 0.50 0.76 0.94 0.95 0.85 0.71 0.64 0.75 0.87 0.77 0.65 0.52 0.40 0.30 0.21 0.14 0.08 0.03 0.02 0.00 0.00 0.00 0.00 0.00 0.00 0.00 0.00 0.00 0.00 0.00 0.00 0.00 0.00 0.00 0.00 0.00
0.10 0.13 0.19 0.29 0.50 0.87 1.09 1.00 0.94 0.83 0.88 0.82 0.90 0.94 0.86 0.70 0.83 0.63 0.47 0.44 0.36 0.28 0.30 0.30 0.27 0.25 0.08 0.04 0.01 0.00 0.00 0.00 0.00 0.00 0.00 0.00 0.00 0.00 0.00 0.00 0.00 0.00 0.00
0.09 0.07 0.06 0.09 0.20 0.50 0.63 0.39 0.40 0.38 0.31 0.31 0.26 0.18 0.13 0.11 0.12 0.11 0.06 0.08 0.11 0.11 0.10 0.09 0.09 0.11 0.11 0.09 0.06 0.04 0.04 0.03 0.01 0.02 0.02 0.02 0.01 0.00 0.00 0.00 0.00 0.00 0.00
0.10 0.14 0.09 0.09 0.16 0.14 0.21 0.30 0.26 0.33 0.31 0.21 0.19 0.18 0.13 0.10 0.10 0.11 0.13 0.12 0.07 0.04 0.04 0.03 0.02 0.01 0.01 0.01 0.02 0.02 0.02 0.00 0.00 0.00 0.00 0.00 0.00 0.00 0.00 0.00 0.00 0.00 0.00
0.02 0.07 0.13 0.16 0.18 0.18 0.21 0.37 0.53 0.33 0.26 0.23 0.21 0.15 0.12 0.17 0.26 0.20 0.18 0.24 0.16 0.10 0.05 0.03 0.02 0.01 0.01 0.01 0.00 0.01 0.01 0.00 0.00 0.00 0.00 0.00 0.00 0.00 0.00 0.00 0.00 0.00 0.00
0.00 0.01 0.03 0.04 0.03 0.05 0.11 0.17 0.20 0.22 0.29 0.26 0.32 0.29 0.22 0.19 0.22 0.19 0.14 0.12 0.18 0.22 0.17 0.15 0.13 0.09 0.08 0.06 0.05 0.05 0.05 0.02 0.00 0.00 0.00 0.00 0.00 0.00 0.00 0.00 0.00 0.00 0.00
0.00 0.00 0.00 0.00 0.00 0.00 0.00 0.00 0.01 0.01 0.01 0.03 0.07 0.14 0.14 0.12 0.06 0.03 0.02 0.01 0.01 0.02 0.05 0.06 0.06 0.06 0.06 0.03 0.01 0.00 0.01 0.00 0.00 0.00 0.00 0.00 0.00 0.00 0.00 0.00 0.00 0.00 0.00
0.00 0.00 0.00 0.00 0.00 0.00 0.00 0.00 0.00 0.00 0.00 0.00 0.00 0.00 0.00 0.00 0.00 0.00 0.00 0.00 0.00 0.00 0.01 0.01 0.00 0.00 0.00 0.00 0.00 0.00 0.00 0.00 0.00 0.00 0.00 0.00 0.00 0.00 0.00 0.00 0.00 0.00 0.00
0.00 0.00 0.00 0.00 0.00 0.00 0.00 0.00 0.00 0.00 0.00 0.00 0.00 0.00 0.00 0.00 0.00 0.00 0.00 0.00 0.00 0.00 0.00 0.00 0.00 0.00 0.00 0.00 0.00 0.00 0.00 0.00 0.00 0.00 0.00 0.00 0.00 0.00 0.00 0.00 0.00 0.00 0.00
0.00 0.00 0.00 0.00 0.00 0.00 0.00 0.00 0.00 0.00 0.00 0.00 0.00 0.00 0.00 0.00 0.00 0.00 0.00 0.00 0.00 0.00 0.00 0.00 0.00 0.00 0.00 0.00 0.00 0.00 0.00 0.00 0.00 0.00 0.00 0.00 0.00 0.00 0.00 0.00 0.00 0.00 0.00
0.00 0.00 0.00 0.00 0.00 0.00 0.00 0.00 0.00 0.00 0.00 0.00 0.00 0.00 0.00 0.00 0.00 0.00 0.00 0.00 0.00 0.00 0.00 0.00 0.00 0.00 0.00 0.00 0.00 0.00 0.00 0.00 0.00 0.00 0.00 0.00 0.00 0.00 0.00 0.00 0.00 0.00 0.00
0.00 0.00 0.00 0.00 0.00 0.00 0.00 0.00 0.00 0.00 0.00 0.00 0.00 0.00 0.00 0.00 0.00 0.00 0.00 0.00 0.00 0.00 0.00 0.00 0.00 0.00 0.00 0.00 0.00 0.00 0.00 0.00 0.00 0.00 0.00 0.00 0.00 0.00 0.00 0.00 0.00 0.00 0.00
0.00 0.00 0.00 0.00 0.00 0.00 0.00 0.00 0.00 0.00 0.00 0.00 0.00 0.00 0.00 0.00 0.00 0.00 0.00 0.00 0.00 0.00 0.00 0.00 0.00 0.00 0.00 0.00 0.00 0.00 0.00 0.00 0.00 0.00 0.00 0.00 0.00 0.00 0.00 0.00 0.00 0.00 0.00
0.00 0.00 0.00 0.00 0.00 0.00 0.00 0.00 0.00 0.00 0.00 0.00 0.00 0.00 0.00 0.00 0.00 0.00 0.00 0.00 0.00 0.00 0.00 0.00 0.00 0.00 0.00 0.00 0.00 0.00 0.00 0.00 0.00 0.00 0.00 0.00 0.00 0.00 0.00 0.00 0.00 0.00 0.00
0.00 0.00 0.00 0.00 0.00 0.00 0.00 0.00 0.00 0.00 0.00 0.00 0.00 0.00 0.00 0.00 0.00 0.00 0.00 0.00 0.00 0.00 0.00 0.00 0.00 0.00 0.00 0.00 0.00 0.00 0.00 0.00 0.00 0.00 0.00 0.00 0.00 0.00 0.00 0.00 0.00 0.00 0.00
0.00 0.01 0.01 0.01 0.00 0.00 0.01 0.01 0.00 0.01 0.01 0.01 0.00 0.00 0.00 0.00 0.00 0.00 0.00 0.00 0.00 0.00 0.00 0.00 0.00 0.00 0.00 0.00 0.00 0.00 0.00 0.00 0.00 0.00 0.00 0.00 0.00 0.00 0.00 0.00 0.00 0.00 0.00